Weather Roundup
Issued by NWS Corpus Christi, TX

Home | Current Version | Previous Version | Text Only | Print | Product List | Glossary On
Versions: 1 2 3 4 5 6 7 8 9 10 11 12 13 14 15 16 17 18 19 20 21 22 23 24 25 26 27 28 29 30 31 32 33 34 35 36 37 38 39 40 41 42 43 44 45 46 47 48 49 50
000
ASUS44 KCRP 300410
HRRCRP

SOUTH TEXAS REGIONAL WEATHER ROUNDUP
NATIONAL WEATHER SERVICE CORPUS CHRISTI TX
1100 PM CDT FRI APR 29 2016


TXZ229>244-300500-
...CORPUS CHRISTI AREA OBSERVATIONS...

CITY           SKY/WX    TMP DP  RH WIND       PRES   REMARKS
CORPUS CHRISTI CLOUDY    80  75  84 S18       29.62S
NAS CORPUS CHR CLOUDY    80  78  94 S17G23    29.63R
ROCKPORT       CLOUDY    79  75  87 S10G21    29.63R
KINGSVILLE NAS CLOUDY    80  79  96 SE12      29.62R
ALICE          CLOUDY    78  75  90 SE10      29.61R FOG
FALFURRIAS     CLOUDY    82  74  76 S10       29.61S
$$

...VICTORIA AREA OBSERVATIONS...

CITY           SKY/WX    TMP DP  RH WIND       PRES   REMARKS
VICTORIA       CLOUDY    79  75  87 S13       29.64S
BEEVILLE       CLOUDY    79  78  96 SE13      29.63R
PLEASANTON     CLOUDY    78  74  87 E6        29.62S HAZE
SAN ANTONIO    PTCLDY    71  66  84 CALM      29.64S
$$

...LAREDO AREA OBSERVATIONS...

CITY           SKY/WX    TMP DP  RH WIND       PRES   REMARKS
LAREDO         PTCLDY    83  75  77 SE14      29.60R HX  90
COTULLA        PTCLDY    84  71  65 S8        29.59R
DEL RIO        CLEAR     74  67  78 N3        29.62R
MCALLEN        CLOUDY    82  76  81 SE9       29.63R HAZE
HEBBRONVILLE   CLOUDY    79  74  83 S10       29.63S
$$

...OTHER TEXAS OBSERVATIONS...

CITY           SKY/WX    TMP DP  RH WIND       PRES   REMARKS
BROWNSVILLE    CLOUDY    79  77  94 S15       29.64R
HOUSTON        CLOUDY    76  72  87 S14G21    29.66F
COL. STATION   CLOUDY    78  74  87 S15G22    29.63S
AUSTIN         CLOUDY    79  74  84 S9        29.62S
WACO           CLOUDY    69  66  90 SW7       29.61F
FORT WORTH     CLOUDY    73  69  87 NE3       29.61R
WICHITA FALLS  PTCLDY    59  56  89 NW10      29.70F
LUBBOCK        CLEAR     56  45  66 N16       29.78R
EL PASO        PTCLDY    66  27  23 NW13      29.86R
$$

...MARINE OBSERVATIONS...

STATION/POSITION TIME  SKY/WX   TEMP    WIND        PRES    VSBY  WAVE   SWELL
                                AIR SEA DIR/SP/G                  HT/PER HT/PER
                 (UTC)          (F)     (DEG/KT/KT) (MB)    (MI)  (FT/S) (FT/S)
PORT ARANSAS     0400            78 78  150/ 21/ 22 1003.5F
BUOY 90 E PORT A 0350            77 76  140/ 16/ 19 1004.5R         8/ 8   5/ 8
BUOY 45 SE BAFFI 0350            78 77  160/ 12/ 14 1003.4R         8/ 9   7/ 9
BUOY 200 E PT IS 0350                                 N/A           8/ 8   2/13
BUOY 15 E GALVES 0350            76 76  160/ 17/ 19 1005.4S         5/ 8   2/ 8
$$




USA.gov is the U.S. government's official web portal to all federal, state and local government web resources and services.